Location: ????? ????
(37.9717°N, 23.4051°E)
Time: 18:23:15
(UTC+00:00)

Cosmos 371 Rocket - Pass Details

Date: 18 April 2024
Orbit: 680 x 694 km, 74.0° (Epoch: 27 May)

Event Time Altitude Azimuth Distance (km) Brightness Sun altitude
Rises 18:35:06 0° 348° (NNW) 3,045 7.3 -17.1°
Reaches altitude 10° 18:37:29 10° 354° (N) 2,126 6.3 -17.5°
Maximum altitude 18:42:05 46° 68° (ENE) 916 3.6 -18.3°
Enters shadow 18:43:21 37° 109° (ESE) 1,056 3.7 -18.5°
